Location: The Saddle
(36.8333°N, 80.3417°W)
Time: 00:22:29
(UTC-04:00)

AO-85 - Visible Passes

Search period start: 29 March 2023 00:00
Search period end: 08 April 2023 00:00
Orbit: 516 x 753 km, 64.8° (Epoch: 04 January)

Date Brightness Start Highest point End Pass type
(mag) Time Alt. Az. Time Alt. Az. Time Alt. Az.
03 Apr ? 06:37:29 10° SE 06:39:56 15° ESE 06:42:20 10° ENE visible
06 Apr ? 06:01:15 10° SSE 06:04:27 20° ESE 06:07:31 10° ENE visible
07 Apr ? 06:21:36 10° SSW 06:25:50 51° ESE 06:29:49 10° NE visible
